Tracking 17996 objects as of 27-February-2017
HD Live streaming from Space Station
objects crossing your sky now

SL-19 R/B

Track SL-19 R/B now!
10-day predictions


NORAD ID: 36589
Int'l Code: 2010-023B
Perigee: 1,048.8 km
Apogee: 1,048.8 km
Inclination: 100.5 °
Period: 106.0 minutes
Semi major axis: 7419 km
RCS: 6.505 m2 (large)
Launch date: June 2, 2010
Source: Commonwealth of Independent States (former USSR) (CIS)
Launch site: PLESETSK MISSILE AND SPACE COMPLEX (PKMTR)

Note: This is a ROCKET BODY
Your satellite tracking list
Your tracking list is empty





NASA's NSSDC Master Catalog

Two Line Element Set (TLE):
1 36589U 10023B   17057.74449220 -.00000037  00000-0  16684-4 0  9999
2 36589 100.5352  96.1174 0225323 352.9424 113.9637 13.58364855334393
Source of the keplerian elements: AFSPC